GW0143 Weather Reports


time (UTC)temp
C
wind
direction
speed
KPH
gust
KPH
rain 1hr
cm
rain 24hr
cm
rain mn
cm
humidity
%
barometer
mb
20260510151543 7 310 3.2 6.4 0.00 0.00 0.00 70 1024.6
20260510150521 6 200 8.0 12.9 0.00 0.00 0.00 75 1024.5
20260510145520 5 206 3.2 6.4 0.00 0.00 0.00 79 1024.5
20260510144521 5 190 8.0 16.1 0.00 0.00 0.00 80 1024.6
20260510143521 5 182 8.0 9.7 0.00 0.00 0.00 83 1024.6
20260510142541 4 174 8.0 12.9 0.00 0.00 0.00 85 1024.6
20260510141521 4 197 6.4 9.7 0.00 0.00 0.00 85 1024.6
20260510140524 4 190 4.8 6.4 0.00 0.00 0.00 86 1024.6
20260510135521 3 198 6.4 9.7 0.00 0.00 0.00 87 1024.6
20260510134522 3 203 8.0 11.3 0.00 0.00 0.00 87 1024.6
20260510133522 3 189 6.4 9.7 0.00 0.00 0.00 87 1024.6
20260510132556 3 190 8.0 11.3 0.00 0.00 0.00 88 1024.4
20260510131517 3 185 11.3 16.1 0.00 0.00 0.00 88 1024.2
20260510130523 3 195 9.7 14.5 0.00 0.00 0.00 89 1024.1
20260510125523 3 201 11.3 14.5 0.00 0.00 0.00 90 1024.0
20260510124518 2 195 11.3 14.5 0.00 0.00 0.00 92 1023.9
20260510123537 2 200 11.3 14.5 0.00 0.00 0.00 92 1023.9
20260510122538 2 195 11.3 16.1 0.00 0.00 0.00 92 1023.8
20260510121517 2 207 9.7 14.5 0.00 0.00 0.00 91 1023.7
20260510120518 2 208 11.3 14.5 0.00 0.00 0.00 91 1023.7
20260510115518 3 209 9.7 14.5 0.00 0.00 0.00 90 1023.6
20260510114518 3 215 9.7 14.5 0.00 0.00 0.00 90 1023.6
20260510113519 3 209 9.7 12.9 0.00 0.00 0.00 90 1023.6
20260510112518 3 210 9.7 14.5 0.00 0.00 0.00 90 1023.6
20260510111539 3 209 11.3 16.1 0.00 0.00 0.00 89 1023.6
20260510110519 3 208 12.9 17.7 0.00 0.00 0.00 89 1023.4
20260510105539 3 217 11.3 16.1 0.00 0.00 0.00 89 1023.4
20260510104516 2 218 12.9 16.1 0.00 0.00 0.00 89 1023.5
20260510103519 3 222 11.3 17.7 0.00 0.00 0.00 89 1023.4
20260510102521 3 218 12.9 17.7 0.00 0.00 0.00 89 1023.4
20260510101521 3 221 12.9 20.9 0.00 0.00 0.00 89 1023.3
20260510100537 3 222 11.3 17.7 0.00 0.00 0.00 88 1023.3
20260510095517 3 223 11.3 17.7 0.00 0.00 0.00 87 1023.2
20260510094520 3 226 11.3 16.1 0.00 0.00 0.00 86 1023.1
20260510093521 4 228 11.3 16.1 0.00 0.00 0.00 86 1022.9
20260510092522 4 227 11.3 14.5 0.00 0.00 0.00 85 1022.8
20260510091521 4 228 9.7 16.1 0.00 0.00 0.00 85 1022.8
20260510090522 4 216 11.3 14.5 0.00 0.00 0.00 84 1022.5
20260510085541 4 210 11.3 16.1 0.00 0.00 0.00 84 1022.3
20260510084558 5 207 14.5 19.3 0.00 0.00 0.00 83 1022.2
20260510083539 5 205 14.5 19.3 0.00 0.00 0.00 82 1022.2
20260510082519 5 203 11.3 20.9 0.00 0.00 0.00 80 1022.2
20260510081519 5 193 12.9 20.9 0.00 0.00 0.00 79 1022.1
20260510080519 5 157 14.5 19.3 0.00 0.00 0.00 77 1022.1
20260510075539 5 157 14.5 20.9 0.00 0.00 0.00 77 1022.0
20260510074516 5 143 14.5 19.3 0.00 0.00 0.00 76 1022.0
20260510073517 6 164 8.0 17.7 0.00 0.00 0.00 73 1021.9
20260510072520 6 126 8.0 17.7 0.00 0.00 0.00 71 1021.9
20260510071523 6 123 6.4 14.5 0.00 0.00 0.00 70 1021.9
20260510070517 6 145 8.0 16.1 0.00 0.00 0.00 67 1021.9
20260510065517 6 292 8.0 12.9 0.00 0.00 0.00 70 1021.6
20260510064537 6 272 9.7 12.9 0.00 0.00 0.00 71 1021.5
20260510063518 6 279 8.0 12.9 0.00 0.00 0.00 71 1021.3
20260510062518 6 255 6.4 12.9 0.00 0.00 0.00 71 1021.3
20260510061518 6 321 3.2 6.4 0.00 0.00 0.00 72 1021.5
20260510060619 7 341 3.2 8.0 0.00 0.00 0.00 69 1021.2
20260510055518 7 112 4.8 8.0 0.00 0.00 0.00 66 1021.1
20260510054518 8 114 6.4 16.1 0.00 0.00 0.00 63 1020.7
20260510053539 8 85 9.7 19.3 0.00 0.00 0.00 59 1020.0
20260510052519 10 80 8.0 16.1 0.00 0.00 0.00 53 1019.7
20260510051519 11 137 12.9 20.9 0.00 0.00 0.00 42 1019.5
20260510050516 10 112 9.7 20.9 0.00 0.00 0.00 41 1019.2
20260510045519 8 141 8.0 11.3 0.00 0.00 0.00 46 1019.3
20260510044519 8 208 8.0 9.7 0.00 0.00 0.00 51 1018.9
20260510043520 9 181 6.4 9.7 0.00 0.00 0.00 49 1018.8
20260510042520 10 145 8.0 11.3 0.00 0.00 0.00 48 1018.9
20260510041520 10 162 11.3 14.5 0.00 0.00 0.00 43 1018.9
20260510040520 10 168 11.3 14.5 0.00 0.00 0.00 45 1018.9
20260510035520 10 154 8.0 11.3 0.00 0.00 0.00 49 1018.9
20260510034521 10 151 8.0 11.3 0.00 0.00 0.00 46 1018.8
20260510033521 11 153 9.7 12.9 0.00 0.00 0.00 44 1018.7
20260510032518 11 166 16.1 24.1 0.00 0.00 0.00 40 1018.6
20260510031541 11 163 11.3 14.5 0.00 0.00 0.00 42 1018.6
20260510030521 11 167 8.0 12.9 0.00 0.00 0.00 41 1018.6
20260510025522 11 188 6.4 12.9 0.00 0.00 0.00 39 1018.4
20260510024522 12 174 4.8 8.0 0.00 0.00 0.00 36 1018.4
20260510023522 12 199 6.4 12.9 0.00 0.00 0.00 35 1018.1
20260510022522 11 264 6.4 12.9 0.00 0.00 0.00 33 1017.9
20260510021536 11 351 6.4 11.3 0.00 0.00 0.00 39 1017.6
20260510020522 12 75 8.0 9.7 0.00 0.00 0.00 37 1017.2
20260510015523 13 94 4.8 9.7 0.00 0.00 0.00 33 1017.0
20260510014524 13 106 9.7 14.5 0.00 0.00 0.00 30 1016.8
20260510013517 13 107 8.0 17.7 0.00 0.00 0.00 30 1016.7
20260510012517 13 103 9.7 22.5 0.00 0.00 0.00 30 1016.6
20260510011518 14 93 12.9 22.5 0.00 0.00 0.00 28 1016.4
20260510010518 15 90 11.3 22.5 0.00 0.00 0.00 29 1016.3
20260510005521 15 83 20.9 30.6 0.00 0.00 0.00 26 1016.2
20260510004518 16 62 16.1 22.5 0.00 0.00 0.00 23 1016.1
20260510003518 16 46 12.9 22.5 0.00 0.00 0.00 18 1016.0
20260510002518 16 70 20.9 32.2 0.00 0.00 0.00 23 1016.0
20260510001519 17 65 22.5 37.0 0.00 0.00 0.00 20 1015.7
20260510000519 17 6 12.9 22.5 0.00 0.00 0.00 18 1015.6
20260509235519 17 41 9.7 14.5 0.00 0.00 0.00 17 1015.6
20260509234519 18 20 12.9 17.7 0.00 0.00 0.00 16 1015.7
20260509233519 18 11 12.9 19.3 0.00 0.00 0.00 17 1015.7
20260509232519 18 356 17.7 27.4 0.00 0.00 0.00 16 1015.6
20260509231537 18 335 11.3 30.6 0.00 0.00 0.00 15 1015.6
20260509230517 18 334 14.5 22.5 0.00 0.00 0.00 15 1015.7
20260509225558 18 20 9.7 17.7 0.00 0.00 0.00 18 1015.7
20260509224521 17 16 9.7 14.5 0.00 0.00 0.00 17 1015.6
20260509223521 18 36 12.9 17.7 0.00 0.00 0.00 19 1015.7
20260509222518 18 340 11.3 19.3 0.00 0.00 0.00 18 1015.8
20260509221518 18 359 11.3 17.7 0.00 0.00 0.00 17 1015.8
20260509220518 18 351 16.1 27.4 0.00 0.00 0.00 15 1015.7
20260509215539 18 355 11.3 16.1 0.00 0.00 0.00 17 1015.8
20260509214539 18 356 11.3 20.9 0.00 0.00 0.00 17 1015.8
20260509213539 18 360 14.5 29.0 0.00 0.00 0.00 16 1015.9
20260509212519 18 336 16.1 30.6 0.00 0.00 0.00 15 1016.0
20260509211539 19 358 14.5 24.1 0.00 0.00 0.00 15 1016.0
20260509210519 20 354 11.3 19.3 0.00 0.00 0.00 16 1016.3
20260509205520 20 327 14.5 29.0 0.00 0.00 0.00 15 1016.3
20260509204517 19 354 20.9 35.4 0.00 0.00 0.00 14 1016.4
20260509203517 20 347 17.7 41.8 0.00 0.00 0.00 15 1016.5
20260509202520 19 345 20.9 30.6 0.00 0.00 0.00 14 1016.6
20260509201521 19 348 17.7 29.0 0.00 0.00 0.00 15 1016.6
20260509200518 19 352 20.9 38.6 0.00 0.00 0.00 14 1016.7
20260509195538 20 325 14.5 29.0 0.00 0.00 0.00 18 1016.8
20260509194558 19 358 16.1 35.4 0.00 0.00 0.00 18 1016.9
20260509193538 19 350 19.3 29.0 0.00 0.00 0.00 17 1017.0
20260509192519 18 345 16.1 25.7 0.00 0.00 0.00 17 1017.1
20260509191539 18 317 12.9 20.9 0.00 0.00 0.00 20 1017.2
20260509190518 18 360 8.0 24.1 0.00 0.00 0.00 20 1017.4
20260509185539 18 314 12.9 20.9 0.00 0.00 0.00 21 1017.4
20260509184519 17 335 12.9 19.3 0.00 0.00 0.00 21 1017.5
20260509183520 17 318 8.0 16.1 0.00 0.00 0.00 22 1017.6
20260509182516 16 347 9.7 17.7 0.00 0.00 0.00 24 1017.6
20260509181517 16 13 11.3 17.7 0.00 0.00 0.00 26 1017.8
20260509180520 16 354 8.0 14.5 0.00 0.00 0.00 26 1017.8
20260509175520 16 283 9.7 20.9 0.00 0.00 0.00 26 1017.9
20260509174521 16 24 11.3 19.3 0.00 0.00 0.00 26 1017.9
20260509173517 16 38 9.7 22.5 0.00 0.00 0.00 26 1017.8
20260509172521 16 330 8.0 14.5 0.00 0.00 0.00 25 1018.0
20260509171537 16 38 8.0 19.3 0.00 0.00 0.00 26 1018.1
20260509170538 16 30 11.3 22.5 0.00 0.00 0.00 27 1018.1
20260509165521 16 4 9.7 16.1 0.00 0.00 0.00 27 1018.3
20260509164518 15 39 11.3 19.3 0.00 0.00 0.00 26 1018.3
20260509163521 15 20 9.7 14.5 0.00 0.00 0.00 28 1018.2
20260509162518 15 43 8.0 17.7 0.00 0.00 0.00 28 1018.2
20260509161659 15 18 9.7 19.3 0.00 0.00 0.00 28 1018.1
20260509160522 15 43 6.4 12.9 0.00 0.00 0.00 30 1018.2
20260509155522 14 356 4.8 11.3 0.00 0.00 0.00 32 1018.2
20260509154516 13 22 4.8 9.7 0.00 0.00 0.00 36 1018.4
20260509153516 13 43 4.8 12.9 0.00 0.00 0.00 40 1018.5
20260509152523 12 34 8.0 14.5 0.00 0.00 0.00 42 1018.5